Flag for Brazil Weather past 2 weeks in São Paulo, São Paulo, Brazil

Now
72 °F

Sunny.


Feels Like: 74 °F
Forecast: 66 / 84 °F
Wind: 3 mph from North

Location: Sao Paulo Airport

Current Time: Mar 4, 2015 at 9:00:09 AM

Latest Report: Mar 4, 2015 at 8:00 AM


Visibility: 10 mi

Pressure: 30.12 "Hg

Humidity: 73%

Dew point: 63 °F

Location of São PauloLocation

Historic Weather in São Paulo — Graph

°F

São Paulo temperature yesterday

Maximum temperature yesterday: 81 °F (at 1:00 PM)
Minimum temperature yesterday: 64 °F (at 3:00 AM)
Average temperature yesterday: 72 °F

Past Weeks' High & Low Weather Summary

 TemperatureHumidityPressure
High88 °F (Feb 27, 4:00 PM)100% (Feb 23, 6:00 PM)30.21 "Hg (Feb 23, 6:00 PM)
Low37 °F (Feb 24, 4:00 PM)35% (Feb 22, 1:00 PM)29.89 "Hg (Feb 27, 4:00 PM)
Average73 °F73%30.08 "Hg
* Reported Feb 17 8:00 AM — Mar 4 7:00 AM, São Paulo, Weather by CustomWeather, © 2015

Note: Actual official high and low records may vary slightly from our data, if they occured in-between our weather recording intervals... More about our weather records

Advertising

São Paulo weather history for previous 24 hours

 ConditionsComfort  
Time TempWeatherWind HumidityBarometerVisibility
7:00 AM
Wed, Mar 4
68 °FPassing clouds.5 mph83%30.09 "HgN/A
6:00 AM66 °FSunny.3 mph88%30.09 "Hg10 mi
5:00 AM66 °FClear.2 mph83%30.07 "Hg10 mi
4:00 AM68 °FPassing clouds.3 mph78%30.07 "HgN/A
3:00 AM68 °FClear.2 mph78%30.07 "Hg10 mi
2:00 AM68 °FPassing clouds.5 mph78%30.09 "HgN/A
1:00 AM70 °FPassing clouds.3 mph73%30.09 "HgN/A
12:00 AM70 °FPassing clouds.7 mph78%30.12 "HgN/A
11:00 PM
Tue, Mar 3
70 °FPassing clouds.10 mph83%30.12 "HgN/A
10:00 PM70 °FPassing clouds.9 mph83%30.12 "HgN/A
9:00 PM72 °FPassing clouds.8 mph78%30.12 "HgN/A
8:00 PM72 °FPassing clouds.10 mph78%30.09 "HgN/A
7:00 PM72 °FPassing clouds.13 mph78%30.07 "HgN/A
6:00 PM73 °FPassing clouds.13 mph74%30.07 "HgN/A
5:00 PM75 °FScattered clouds.15 mph69%30.07 "HgN/A
4:00 PM79 °FScattered clouds.16 mph65%30.04 "HgN/A
3:00 PM81 °FScattered clouds.8 mph58%30.07 "HgN/A
2:00 PM81 °FPartly sunny.5 mph51%30.07 "HgN/A
1:00 PM81 °FPartly sunny.3 mph51%30.09 "HgN/A
12:00 PM79 °FSunny.5 mph58%30.12 "Hg10 mi
11:00 AM77 °FSunny.7 mph61%30.15 "Hg10 mi
10:00 AM73 °FSunny.9 mph69%30.15 "Hg10 mi
9:00 AM70 °FPartly sunny.10 mph78%30.15 "HgN/A
Weather by CustomWeather, © 2015

See weather overviewHow to use our weather pages